Location: Asbacherhof
(48.8543°N, 10.7903°E)
Time: 23:04:17
(UTC+00:00)

NPP - Pass Details

Date: 26 May 2022
Orbit: 826 x 828 km, 98.7° (Epoch: 29 June)

Event Time Altitude Azimuth Distance (km) Brightness Sun altitude
Rises 01:48:19 0° 10° (N) 3,380 8.1 -12.0°
Reaches altitude 10° 01:50:44 10° 6° (N) 2,442 7.1 -11.8°
Maximum altitude 01:55:56 50° 292° (WNW) 1,044 4.1 -11.3°
Enters shadow 02:00:20 14° 221° (SW) 2,138 5.1 -10.8°
